ブルックス第2彗星

16P/Brooks 2 (2008)

English version
Home page
Updated on March 17, 2010

---------------------------------------------------------------------

・ プロフィール

・ 軌道要素

The following orbital elements are taken from MPC 54168:

Epoch 2008 Apr. 4.0 TT = JDT 2454560.5
T 2008 Apr. 12.5944 TT                                  MPC
q   1.466611             (2000.0)            P               Q
n   0.1604862      Peri.  219.4701      +0.9457753      -0.3237668
a   3.353597       Node   159.3753      +0.3136302      +0.8892699
e   0.562675       Incl.    4.2583      +0.0845288      +0.3230698
P   6.14
From 242 observations 1987-2001, mean residual 0".9.  Nongravitational
     parameters A1 = +0.39, A2 = -0.1324.

・ 星図

・ 光度変化

        m1 = 11.7 + 5 logΔ + 12.0 log r

---------------------------------------------------------------------

軌道要素はMPCのEphemerides and Orbital Elementsに掲載されたものです。
星図は StellaNavigator Ver.2.0 for Windows (アストロアーツ 編著 / アスキー出版局刊) で作成したものです。
光度グラフはComet for Windowsで作成したものです。

---------------------------------------------------------------------

Copyright(C) Seiichi Yoshida (comet@aerith.net). All rights reserved.